sat.trackr.live / text

‹ back to catalog

COSMOS 2524

NORAD 43032 · 2017-076A

PAYLOAD ACTIVE UNKNOWN

§ Identity

Operator
Country
CIS
Launch date
2017-12-02
Launch site
PLMSC
Launch vehicle
Mass (kg)
RCS (m²)

External: N2YO · Heavens-Above · Gunter

§ Orbital elements

Epoch: 2026-05-25T04:45:33.253920Z

Period
103.05 min
Inclination
67.1463°
Eccentricity
0.0006332
Mean motion
13.97427394 rev/d
Perigee alt
898.1 km
Apogee alt
907.3 km
Semi-major
7,280.9 km
B*
3.7520e-4
RAAN
248.4372°
Arg perigee
227.8759°
Mean anomaly
132.1789°
Rev number
43,239

§ Raw data

COSMOS 25241 43032U 17076A   26145.19830155  .00000452  00000+0  37520-3 0  99932 43032  67.1463 248.4372 0006332 227.8759 132.1789 13.97427394432396

JSON: /api/v1/satellites/43032 · /tle

For live sub-satellite position, see the globe view (requires WebGL).

§ Visibility from observer

Set your observer location to see the next 7 days of passes ≥ 10°. The values pass through the URL so the page stays shareable.

No JS? Fill the form by hand. The geolocation button needs JavaScript.